Etusivu
METAR-TAF:

METAR-TAF

Lentoasemat :

Port Hope, Michigan, Yhdysvallat

Leveyspiiri: 44-01-19N, Pituuspiiri: 082-47-35W, korkeus merenpinnasta: 179 m

Tämänhetkinen sää

Tämä raportti tehtiin 38 minuuttia sitten, kello 04.51 UTC
tyyntä
Lämpötila 1°C
Kosteus 86%
Ilmanpaine 1007 hPa

METAR: KP58 190451Z AUTO 00000KT 01/M01 A2973 RMK AO1 SLP074 T00061011 400501006

Aika: 00:29 (05:29 UTC)


TAF: puuttuu

Säähavainnot ja -ennusteet yli 4000 lentoasemalta (METAR- ja TAF-raportit).

Käytössä olevat sääasemat on merkitty karttaan keltaisilla ja punaisilla pisteillä.

Aseta hiiri pisteen päälle nähdäksesi sääaseman nimen.

Klikkaa sitten nähdäksesi säähavainnot ja -ennusteet.

Kartan vaihtaminen: klikkaa mustalla rastilla varustettuja vihreitä pisteitä, niin voit zoomata sisään; viivalla varustettua vihreää pistettä, niin voit zoomata ulos tai vihreitä nuolia, niin pääset viereisille kartoille.


METAR-TAF: